| time (UTC) | temp F | wind direction | speed MPH | gust MPH | rain 1hr in | rain 24hr in | rain mn in | humidity % | barometer mb |
| 20260502195233 | 62 | 40 | 2.0 | 4.0 | 0.00 | 0.00 | 0.00 | 74 | 1014.2 |
| 20260502193733 | 64 | 93 | 2.0 | 4.0 | 0.00 | 0.00 | 0.00 | 69 | 1014.2 |
| 20260502192232 | 66 | 44 | 0.0 | 2.0 | 0.00 | 0.00 | 0.00 | 67 | 1014.2 |
| 20260502190732 | 68 | 346 | 0.0 | 0.0 | 0.00 | 0.00 | 0.00 | 63 | 1014.2 |
| 20260502185231 | 69 | 284 | 2.0 | 4.0 | 0.00 | 0.00 | 0.00 | 59 | 1014.1 |
| 20260502183732 | 69 | 279 | 2.0 | 6.0 | 0.00 | 0.00 | 0.00 | 54 | 1014.0 |
| 20260502182230 | 71 | 250 | 4.0 | 6.0 | 0.00 | 0.00 | 0.00 | 54 | 1014.0 |
| 20260502180730 | 73 | 280 | 2.0 | 4.0 | 0.00 | 0.00 | 0.00 | 46 | 1014.1 |
| 20260502163729 | 75 | 231 | 6.0 | 11.0 | 0.00 | 0.00 | 0.00 | 46 | 1015.1 |
| 20260502162228 | 71 | 218 | 6.0 | 13.0 | 0.00 | 0.00 | 0.00 | 51 | 1015.3 |
| 20260502160728 | 73 | 236 | 6.0 | 13.0 | 0.00 | 0.00 | 0.00 | 47 | 1015.5 |
| 20260502152227 | 73 | 226 | 6.0 | 15.0 | 0.00 | 0.00 | 0.00 | 47 | 1015.9 |
| 20260502150727 | 73 | 198 | 6.0 | 13.0 | 0.00 | 0.00 | 0.00 | 47 | 1016.1 |
| 20260502130725 | 75 | 193 | 6.0 | 17.0 | 0.00 | 0.00 | 0.00 | 45 | 1017.0 |
| 20260502123724 | 73 | 209 | 8.0 | 22.0 | 0.00 | 0.00 | 0.00 | 44 | 1017.4 |
| 20260502122224 | 71 | 195 | 11.0 | 17.0 | 0.00 | 0.00 | 0.00 | 45 | 1017.6 |
| 20260502120724 | 73 | 213 | 8.0 | 17.0 | 0.00 | 0.00 | 0.00 | 44 | 1017.6 |
| 20260502115223 | 71 | 209 | 8.0 | 15.0 | 0.00 | 0.00 | 0.00 | 44 | 1017.7 |
| 20260502113723 | 71 | 225 | 8.0 | 15.0 | 0.00 | 0.00 | 0.00 | 47 | 1017.9 |
| 20260502112222 | 69 | 207 | 8.0 | 15.0 | 0.00 | 0.00 | 0.00 | 42 | 1018.0 |
| 20260502110722 | 69 | 204 | 8.0 | 15.0 | 0.00 | 0.00 | 0.00 | 43 | 1018.1 |
| 20260502105222 | 69 | 199 | 11.0 | 17.0 | 0.00 | 0.00 | 0.00 | 42 | 1018.2 |
| 20260502103722 | 71 | 204 | 8.0 | 15.0 | 0.00 | 0.00 | 0.00 | 42 | 1018.2 |
| 20260502102221 | 71 | 210 | 8.0 | 15.0 | 0.00 | 0.00 | 0.00 | 42 | 1018.2 |
| 20260502100721 | 71 | 184 | 8.0 | 15.0 | 0.00 | 0.00 | 0.00 | 43 | 1018.4 |
| 20260502090720 | 68 | 197 | 11.0 | 15.0 | 0.00 | 0.00 | 0.00 | 40 | 1018.6 |
| 20260502070716 | 62 | 187 | 6.0 | 11.0 | 0.00 | 0.00 | 0.00 | 46 | 1018.9 |
| 20260502065216 | 60 | 167 | 6.0 | 11.0 | 0.00 | 0.00 | 0.00 | 50 | 1018.8 |
| 20260502063716 | 59 | 162 | 4.0 | 8.0 | 0.00 | 0.00 | 0.00 | 51 | 1018.9 |
| 20260502062215 | 57 | 155 | 6.0 | 8.0 | 0.00 | 0.00 | 0.00 | 55 | 1019.0 |
| 20260502060716 | 55 | 152 | 6.0 | 8.0 | 0.00 | 0.00 | 0.00 | 56 | 1019.0 |
| 20260502055214 | 55 | 152 | 6.0 | 8.0 | 0.00 | 0.00 | 0.00 | 56 | 1019.0 |
| 20260502053714 | 53 | 148 | 6.0 | 8.0 | 0.00 | 0.00 | 0.00 | 60 | 1019.0 |
| 20260502052214 | 53 | 149 | 6.0 | 8.0 | 0.00 | 0.00 | 0.00 | 61 | 1019.0 |
| 20260502050714 | 51 | 147 | 6.0 | 8.0 | 0.00 | 0.00 | 0.00 | 62 | 1019.0 |
| 20260502045214 | 50 | 145 | 6.0 | 6.0 | 0.00 | 0.00 | 0.00 | 66 | 1019.1 |
| 20260502043714 | 48 | 144 | 4.0 | 6.0 | 0.00 | 0.00 | 0.00 | 66 | 1019.1 |
| 20260502042214 | 50 | 147 | 4.0 | 6.0 | 0.00 | 0.00 | 0.00 | 65 | 1019.2 |
| 20260502040714 | 50 | 154 | 4.0 | 6.0 | 0.00 | 0.00 | 0.00 | 63 | 1019.4 |
| 20260502035214 | 50 | 153 | 4.0 | 6.0 | 0.00 | 0.00 | 0.00 | 62 | 1019.5 |
| 20260502033714 | 50 | 153 | 6.0 | 6.0 | 0.00 | 0.00 | 0.00 | 62 | 1019.5 |
| 20260502032214 | 50 | 151 | 4.0 | 6.0 | 0.00 | 0.00 | 0.00 | 61 | 1019.5 |
| 20260502030714 | 51 | 152 | 4.0 | 6.0 | 0.00 | 0.00 | 0.00 | 60 | 1019.7 |
| 20260502025214 | 51 | 153 | 4.0 | 6.0 | 0.00 | 0.00 | 0.00 | 59 | 1019.7 |
| 20260502023714 | 51 | 151 | 4.0 | 6.0 | 0.00 | 0.00 | 0.00 | 57 | 1019.8 |
| 20260502022213 | 51 | 150 | 4.0 | 6.0 | 0.00 | 0.00 | 0.00 | 58 | 1019.9 |
| 20260502020713 | 51 | 153 | 4.0 | 8.0 | 0.00 | 0.00 | 0.00 | 58 | 1020.1 |
| 20260502015211 | 51 | 152 | 6.0 | 8.0 | 0.00 | 0.00 | 0.00 | 58 | 1020.1 |
| 20260502013712 | 53 | 150 | 4.0 | 6.0 | 0.00 | 0.00 | 0.00 | 56 | 1020.4 |
| 20260502012210 | 53 | 148 | 4.0 | 6.0 | 0.00 | 0.00 | 0.00 | 55 | 1020.5 |
| 20260502010711 | 53 | 153 | 4.0 | 6.0 | 0.00 | 0.00 | 0.00 | 54 | 1020.6 |
| 20260502005210 | 53 | 153 | 4.0 | 8.0 | 0.00 | 0.00 | 0.00 | 53 | 1020.8 |
| 20260502003710 | 55 | 152 | 4.0 | 8.0 | 0.00 | 0.00 | 0.00 | 53 | 1020.9 |
| 20260502002209 | 55 | 156 | 4.0 | 6.0 | 0.00 | 0.00 | 0.00 | 51 | 1020.9 |
| 20260502000709 | 55 | 157 | 4.0 | 6.0 | 0.00 | 0.00 | 0.00 | 51 | 1021.0 |
| 20260501235208 | 51 | 157 | 4.0 | 4.0 | 0.00 | 0.00 | 0.00 | 60 | 1021.2 |
| 20260501233708 | 50 | 146 | 4.0 | 4.0 | 0.00 | 0.00 | 0.00 | 65 | 1021.3 |
| 20260501232207 | 51 | 145 | 4.0 | 4.0 | 0.00 | 0.00 | 0.00 | 62 | 1021.2 |
| 20260501230706 | 50 | 145 | 4.0 | 4.0 | 0.00 | 0.00 | 0.00 | 65 | 1021.4 |
| 20260501225206 | 48 | 148 | 2.0 | 4.0 | 0.00 | 0.00 | 0.00 | 75 | 1021.5 |
| 20260501223707 | 46 | 151 | 4.0 | 4.0 | 0.00 | 0.00 | 0.00 | 80 | 1021.5 |
| 20260501222206 | 46 | 150 | 4.0 | 4.0 | 0.00 | 0.00 | 0.00 | 81 | 1021.6 |
| 20260501220706 | 48 | 145 | 2.0 | 2.0 | 0.00 | 0.00 | 0.00 | 80 | 1021.7 |
| 20260501215206 | 48 | 144 | 2.0 | 2.0 | 0.00 | 0.00 | 0.00 | 81 | 1021.7 |
| 20260501213707 | 48 | 131 | 0.0 | 2.0 | 0.00 | 0.00 | 0.00 | 82 | 1021.7 |
| 20260501212206 | 48 | 141 | 2.0 | 4.0 | 0.00 | 0.00 | 0.00 | 80 | 1021.7 |
| 20260501210706 | 50 | 129 | 2.0 | 2.0 | 0.00 | 0.00 | 0.00 | 74 | 1021.8 |
| 20260501205206 | 51 | 126 | 0.0 | 2.0 | 0.00 | 0.00 | 0.00 | 70 | 1021.9 |
| 20260501203706 | 53 | 126 | 0.0 | 2.0 | 0.00 | 0.00 | 0.00 | 64 | 1022.0 |
| 20260501202205 | 53 | 127 | 0.0 | 2.0 | 0.00 | 0.00 | 0.00 | 64 | 1022.0 |
| 20260501200704 | 53 | 126 | 0.0 | 2.0 | 0.00 | 0.00 | 0.00 | 66 | 1021.9 |